Simultaneous Nadir Overpasses (SNOs) Predictions

Prediction of SNOs between NOAA-19 and TERRA Satellite Orbit:

Table of predicted SNOs for the next 14.0 days since TLE Epoch: 8/13/2022
Index Date (NOAA-19) Time (NOAA-19) Lat,Lon (NOAA-19) SZA (NOAA-19 ) Date (TERRA) Time (TERRA) Lat,Lon (TERRA) SZA (TERRA ) Distance(km) Time Diff (sec)
1 08/14/2022 01:24:21 -80.83, 14.88 111.91 08/14/2022 01:25:00 -80.85, 14.90 111.88 1.77 39
2 08/14/2022 02:15:16 80.83,-177.78 68.11 08/14/2022 02:14:27 80.83,-177.75 68.09 0.99 49
3 08/16/2022 07:48:14 -80.84, -81.10 111.19 08/16/2022 07:48:08 -80.84, -81.04 111.19 1.24 6
4 08/18/2022 13:21:02 80.84, 15.59 69.53 08/18/2022 13:21:48 80.85, 15.68 69.56 2.15 46
5 08/18/2022 14:12:07 -80.84,-177.14 110.46 08/18/2022 14:11:16 -80.82,-177.02 110.49 2.66 51
6 08/20/2022 19:44:54 80.84, -80.19 70.29 08/20/2022 19:44:56 80.83, -80.38 70.27 3.42 2
7 08/23/2022 01:17:53 -80.85, 16.21 108.98 08/23/2022 01:18:37 -80.84, 16.26 108.97 1.34 44
8 08/23/2022 02:08:46 80.84,-176.00 71.08 08/23/2022 02:08:03 80.83,-176.15 71.04 2.69 43



Historial Predications of SNOs between NOAA-19 and TERRA
